Flag for Canada Weather past 2 weeks in Caledon, Ontario, Canada

Now
27 °F

Clear.


Feels Like: 27 °F
Forecast: 26 / 49 °F
Wind: No wind

Location: Borden


UV Index: 5 (Moderate)

Visibility: 9 mi


Pressure: 30.55 "Hg

Humidity: 80%

Dew point: 21 °F

Location of CaledonLocation

Historic Weather in Caledon

°F

Caledon temperature yesterday

Maximum temperature yesterday: 37 °F (at 3:00 PM)
Minimum temperature yesterday: 18 °F (at 4:00 AM)
Average temperature yesterday: 28 °F

Past Weeks' High & Low Weather Summary

 TemperatureHumidityPressure
High68 °F (Apr 13, 2:00 PM)100% (Apr 4, 12:00 PM)30.55 "Hg (Apr 4, 12:00 PM)
Low18 °F (Apr 3, 5:00 AM)31% (Apr 11, 1:00 PM)29.36 "Hg (Apr 8, 4:55 AM)
Average39 °F74%29.90 "Hg
* Reported Apr 1 10:00 PM — Apr 16 10:00 PM, Caledon, Weather by CustomWeather, © 2014

Note: Actual official high and low records may vary slightly from our data, if they occured in-between our weather recording intervals... More about our weather records

Advertising

Historic Weather Conditions — Data for Previous 24 hours

 ConditionsComfort  
Time TempWeatherWind HumidityBarometerVisibility
10:00 PM
Apr 16
28 °FClear.No wind69%30.55 "Hg9 mi
9:00 PM30 °FSunny.6 mph69%30.53 "Hg9 mi
8:00 PM34 °FSunny.5 mph56%30.50 "Hg9 mi
7:00 PM37 °FSunny.7 mph45%30.45 "Hg9 mi
6:00 PM37 °FPassing clouds.3 mph45%30.45 "Hg9 mi
5:00 PM37 °FScattered clouds.5 mph41%30.44 "Hg9 mi
4:00 PM37 °FPassing clouds.7 mph45%30.48 "Hg9 mi
3:00 PM37 °FPartly sunny.9 mph41%30.48 "Hg9 mi
2:00 PM36 °FPartly sunny.10 mph48%30.49 "Hg9 mi
1:00 PM32 °FOvercast.7 mph55%30.50 "Hg9 mi
12:00 PM30 °FScattered clouds.7 mph55%30.50 "Hg9 mi
11:00 AM28 °FOvercast.13 mph59%30.49 "Hg9 mi
10:00 AM27 °FOvercast.6 mph59%30.47 "Hg9 mi
9:00 AM23 °FScattered clouds.No wind63%30.44 "Hg9 mi
8:00 AM19 °FPartly sunny.6 mph68%30.42 "Hg9 mi
7:00 AMN/AClear.5 mphN/A30.34 "Hg9 mi
6:04 AMN/APassing clouds.2 mphN/A30.29 "Hg9 mi
5:00 AMN/AClear.No windN/A30.25 "Hg9 mi
4:00 AM18 °FClear.7 mph73%30.26 "Hg9 mi
3:00 AM19 °FClear.10 mph68%30.24 "Hg9 mi
2:00 AM19 °FClear.10 mph68%30.23 "Hg9 mi
1:00 AM19 °FClear.8 mph68%30.22 "Hg9 mi
12:00 AM19 °FClear.8 mph68%30.19 "Hg9 mi
Weather by CustomWeather, © 2014

See weather overview